Miscellaneous Local Product
Issued by NWS Hastings, NE

Home | Current Version | Previous Version | Text Only | Print | Product List | Glossary On
Versions: 1 2 3 4 5 6 7 8 9 10 11 12 13 14 15 16 17 18 19 20 21 22 23 24 25 26 27 28 29 30 31 32 33 34 35 36 37 38 39 40 41 42 43 44 45 46 47 48 49 50
000
AXUS43 KGID 281302
MISGRI

GID CWA HOURLY WEATHER ROUNDUP
NATIONAL WEATHER SERVICE HASTINGS NE
800 AM CDT MON JUL 28 2014

NOTE: "FAIR" INDICATES FEW OR NO CLOUDS BELOW 12,000 FEET WITH NO
SIGNIFICANT WEATHER AND/OR OBSTRUCTIONS TO VISIBILITY.

...SOUTH CENTRAL NEBRASKA...

CITY           SKY/WX    TMP DP  RH WIND       PRES   REMARKS
GRAND ISLAND   SUNNY     60  55  83 NW8       30.32S
HASTINGS       SUNNY     61  55  81 N9        30.31S
KEARNEY        SUNNY     59  55  88 N9        30.33R
ORD            MOSUNNY   59  55  87 NW5       30.33R
YORK           SUNNY     59  59 100 N8        30.30S
AURORA         SUNNY     60  59  97 N5        30.31R
LEXINGTON      SUNNY     58  56  92 CALM      30.34R
HOLDREGE       SUNNY     59  57  91 NE5       30.33R
HEBRON         SUNNY     62  55  77 N6        30.29R

...NEBRASKA PANHANDLE...

CITY           SKY/WX    TMP DP  RH WIND       PRES   REMARKS
CHADRON        SUNNY     58  51  78 NE3       30.34S
ALLIANCE       SUNNY     59  51  75 E10       30.35R
SCOTTSBLUFF    SUNNY     61  50  67 E8        30.33R
SIDNEY         SUNNY     62  48  60 SE7       30.34S

...WESTERN AND NORTH CENTRAL NEBRASKA...

CITY           SKY/WX    TMP DP  RH WIND       PRES   REMARKS
VALENTINE      SUNNY     56  51  84 CALM      30.36R
AINSWORTH      SUNNY     55  54  95 CALM      30.36S
ONEILL         SUNNY     57  53  87 W6        30.34R
BROKEN BOW     SUNNY     59  55  87 N5        30.34S
IMPERIAL       MOSUNNY   61  55  81 E8        30.32S
NORTH PLATTE   SUNNY     57  54  89 E3        30.35R
MCCOOK         MOSUNNY   60  56  86 E8        30.33R

...EASTERN NEBRASKA...

CITY           SKY/WX    TMP DP  RH WIND       PRES   REMARKS
NORFOLK        SUNNY     60  55  83 N7        30.29R
SO SIOUX CITY  SUNNY     61  56  83 NW7       30.26R
ALBION         SUNNY     56  53  89 NW7       30.32R
OMAHA EPPLEY   MOSUNNY   60  56  86 N5        30.25R
OFFUTT AFB     MOSUNNY   63  59  87 N9        30.24R
MILLARD        SUNNY     63  56  78 NW6       30.26R
LINCOLN        SUNNY     63  55  75 N8        30.28R
NEBRASKA CITY  SUNNY     61  58  90 N5        30.25R
BEATRICE       SUNNY     60  57  90 N8        30.26S
FALLS CITY     SUNNY     62  57  83 N6        30.23

...NORTHERN KANSAS...

CITY           SKY/WX    TMP DP  RH WIND       PRES   REMARKS
GOODLAND       MOSUNNY   67  51  56 SE7       30.33R
HILL CITY      SUNNY     63  57  81 E6        30.32R
NORTON         SUNNY     61  54  77 E7        30.32R
PHILLIPSBURG   SUNNY     63  57  82 NE6       30.31R
SMITH CENTER   SUNNY     63  55  77 NE9       30.31R
HAYS           MOSUNNY   64  55  72 NE7       30.31R
RUSSELL        MOSUNNY   63  57  81 MISG      30.29R
CONCORDIA      SUNNY     64  57  78 N6        30.28R
SALINA         MOSUNNY   67  57  70 NE7       30.28R
TOPEKA         SUNNY     67  58  72 N7        30.23R



USA.gov is the U.S. government's official web portal to all federal, state and local government web resources and services.